TimePDT,TemperatureF,Dew PointF,Humidity,Sea Level PressureIn,VisibilityMPH,Wind Direction,Wind SpeedMPH,Gust SpeedMPH,PrecipitationIn,Events,Conditions,WindDirDegrees,DateUTC
12:53 AM,80.1,62.1,54,29.96,10.0,Calm,Calm,-,N/A,,Clear,0,2013-07-02 07:53:00
1:53 AM,75.0,62.1,64,29.96,10.0,Calm,Calm,-,N/A,,Clear,0,2013-07-02 08:53:00
2:53 AM,73.0,62.1,68,29.96,10.0,NNE,3.5,-,N/A,,Clear,30,2013-07-02 09:53:00
3:53 AM,72.0,62.1,71,29.96,10.0,Calm,Calm,-,N/A,,Clear,0,2013-07-02 10:53:00
4:53 AM,71.1,61.0,70,29.98,10.0,Calm,Calm,-,N/A,,Clear,0,2013-07-02 11:53:00
5:53 AM,71.1,62.1,73,29.98,10.0,Calm,Calm,-,N/A,,Clear,0,2013-07-02 12:53:00
7:53 AM,75.0,62.1,64,30.00,10.0,North,3.5,-,N/A,,Clear,350,2013-07-02 14:53:00
8:53 AM,79.0,63.0,58,30.00,10.0,Calm,Calm,-,N/A,,Clear,0,2013-07-02 15:53:00
9:53 AM,82.9,63.0,51,29.99,10.0,Calm,Calm,-,N/A,,Clear,0,2013-07-02 16:53:00
10:53 AM,86.0,63.0,46,29.99,10.0,Calm,Calm,-,N/A,,Clear,0,2013-07-02 17:53:00
11:53 AM,91.0,63.0,39,29.98,10.0,Variable,3.5,-,N/A,,Clear,0,2013-07-02 18:53:00
12:53 PM,93.0,63.0,37,29.96,10.0,West,3.5,-,N/A,,Clear,270,2013-07-02 19:53:00
1:53 PM,96.1,62.1,32,29.96,10.0,NW,4.6,-,N/A,,Clear,310,2013-07-02 20:53:00
2:53 PM,100.0,61.0,28,29.94,10.0,WNW,6.9,-,N/A,,Clear,290,2013-07-02 21:53:00
3:53 PM,100.9,64.0,30,29.92,10.0,West,10.4,-,N/A,,Clear,280,2013-07-02 22:53:00
4:53 PM,102.0,64.9,30,29.90,10.0,WNW,11.5,-,N/A,,Partly Cloudy,290,2013-07-02 23:53:00
5:53 PM,100.0,63.0,29,29.89,10.0,West,9.2,-,N/A,,Partly Cloudy,280,2013-07-03 00:53:00
6:53 PM,100.0,57.9,25,29.90,10.0,NNW,12.7,-,N/A,,Partly Cloudy,340,2013-07-03 01:53:00
7:53 PM,97.0,57.9,27,29.91,10.0,North,10.4,-,N/A,,Partly Cloudy,350,2013-07-03 02:53:00
8:53 PM,91.9,57.9,32,29.93,10.0,NNW,8.1,-,N/A,,Scattered Clouds,340,2013-07-03 03:53:00
9:53 PM,89.1,57.0,34,29.95,10.0,Calm,Calm,-,N/A,,Clear,0,2013-07-03 04:53:00
10:53 PM,82.9,57.9,42,29.96,10.0,ENE,4.6,-,N/A,,Clear,70,2013-07-03 05:53:00
11:53 PM,84.0,60.1,44,29.96,10.0,Calm,Calm,-,N/A,,Clear,0,2013-07-03 06:53:00